• en France
  • Liste des pays
  • À 7 jours
  • Température de l'eau
  • Carte satellitaire
  • Carte météo
  • Widgets météo
  • user-avatar
    Se connecter

    Météo par heure à Sevan

    Ce jour, 21 Juillet, Samedi

    Heure Température Précipitation Vent Pression Humidité
    00:00 +19°C° 0,2 mm 3 m/s 638 mmHg 72%
    01:00 +18°C° 0 mm 3 m/s 638 mmHg 74%
    02:00 +18°C° 0 mm 2 m/s 638 mmHg 77%
    03:00 +17°C° 0 mm 2 m/s 637 mmHg 78%
    04:00 +17°C° 0 mm 2 m/s 637 mmHg 77%
    05:00 +18°C° 0 mm 2 m/s 638 mmHg 76%
    06:00 +18°C° 0 mm 2 m/s 638 mmHg 75%
    07:00 +20°C° 0 mm 2 m/s 639 mmHg 66%
    08:00 +23°C° 0 mm 2 m/s 639 mmHg 58%
    09:00 +25°C° 0 mm 2 m/s 640 mmHg 51%
    10:00 +26°C° 0,1 mm 2 m/s 640 mmHg 47%
    11:00 +28°C° 0,1 mm 2 m/s 640 mmHg 44%
    12:00 +29°C° 0,1 mm 2 m/s 640 mmHg 40%
    13:00 +29°C° 0,2 mm 2 m/s 640 mmHg 40%
    14:00 +29°C° 0,2 mm 2 m/s 640 mmHg 39%
    15:00 +29°C° 0 mm 3 m/s 640 mmHg 41%
    16:00 +28°C° 0,3 mm 3 m/s 640 mmHg 45%
    17:00 +27°C° 0,3 mm 3 m/s 640 mmHg 49%
    18:00 +27°C° 0,3 mm 4 m/s 640 mmHg 53%
    19:00 +25°C° 0,4 mm 4 m/s 639 mmHg 60%
    20:00 +22°C° 0,4 mm 3 m/s 639 mmHg 67%
    21:00 +20°C° 0,4 mm 3 m/s 639 mmHg 73%
    22:00 +19°C° 0,1 mm 3 m/s 639 mmHg 75%
    23:00 +18°C° 0,1 mm 3 m/s 639 mmHg 76%

    Demain, 22 Juillet, Dimanche

    Heure Température Précipitation Vent Pression Humidité
    00:00 +18°C° 0,1 mm 3 m/s 639 mmHg 77%
    01:00 +17°C° 0,1 mm 3 m/s 639 mmHg 79%
    02:00 +17°C° 0,1 mm 3 m/s 639 mmHg 80%
    03:00 +17°C° 0,1 mm 2 m/s 639 mmHg 82%
    04:00 +17°C° 0,1 mm 2 m/s 639 mmHg 82%
    05:00 +17°C° 0,1 mm 2 m/s 639 mmHg 81%
    06:00 +18°C° 0,1 mm 2 m/s 639 mmHg 80%
    07:00 +19°C° 0 mm 2 m/s 640 mmHg 74%
    08:00 +21°C° 0 mm 2 m/s 640 mmHg 67%
    09:00 +24°C° 0 mm 2 m/s 640 mmHg 61%
    10:00 +25°C° 0,2 mm 2 m/s 640 mmHg 57%
    11:00 +26°C° 0,2 mm 2 m/s 640 mmHg 53%
    12:00 +27°C° 0,2 mm 2 m/s 640 mmHg 50%
    13:00 +27°C° 0,2 mm 3 m/s 640 mmHg 48%
    14:00 +27°C° 0,2 mm 3 m/s 640 mmHg 47%
    15:00 +28°C° 0,2 mm 3 m/s 640 mmHg 46%
    16:00 +27°C° 0,3 mm 3 m/s 639 mmHg 49%
    17:00 +26°C° 0,3 mm 3 m/s 639 mmHg 52%
    18:00 +26°C° 0,3 mm 2 m/s 639 mmHg 55%
    19:00 +24°C° 0,5 mm 2 m/s 639 mmHg 62%
    20:00 +21°C° 0,5 mm 2 m/s 639 mmHg 68%
    21:00 +20°C° 0,5 mm 2 m/s 639 mmHg 75%
    22:00 +19°C° 0,3 mm 2 m/s 639 mmHg 77%
    23:00 +18°C° 0,3 mm 2 m/s 639 mmHg 80%

    Après-demain, 23 Juillet, Lundi

    Heure Température Précipitation Vent Pression Humidité
    00:00 +18°C° 0,3 mm 2 m/s 639 mmHg 82%
    01:00 +18°C° 0,1 mm 2 m/s 639 mmHg 83%
    02:00 +17°C° 0,1 mm 2 m/s 638 mmHg 85%
    03:00 +17°C° 0,1 mm 2 m/s 638 mmHg 86%
    04:00 +18°C° 0,2 mm 2 m/s 638 mmHg 85%
    05:00 +18°C° 0,2 mm 2 m/s 638 mmHg 84%
    06:00 +18°C° 0,2 mm 2 m/s 639 mmHg 83%
    07:00 +20°C° 0,2 mm 2 m/s 639 mmHg 76%
    08:00 +21°C° 0,2 mm 2 m/s 639 mmHg 69%
    09:00 +23°C° 0,2 mm 2 m/s 639 mmHg 62%
    10:00 +24°C° 0,5 mm 2 m/s 639 mmHg 58%
    11:00 +25°C° 0,5 mm 2 m/s 639 mmHg 54%
    12:00 +27°C° 0,5 mm 2 m/s 639 mmHg 51%
    13:00 +27°C° 0,5 mm 2 m/s 639 mmHg 49%
    14:00 +28°C° 0,5 mm 2 m/s 638 mmHg 47%
    15:00 +28°C° 0,5 mm 3 m/s 638 mmHg 46%
    16:00 +27°C° 0,8 mm 3 m/s 638 mmHg 49%
    17:00 +26°C° 0,8 mm 3 m/s 638 mmHg 53%
    18:00 +25°C° 0,8 mm 3 m/s 638 mmHg 56%
    19:00 +24°C° 0,9 mm 2 m/s 638 mmHg 61%
    20:00 +21°C° 0,9 mm 2 m/s 638 mmHg 66%
    21:00 +20°C° 0,9 mm 2 m/s 638 mmHg 71%
    22:00 +19°C° 0,3 mm 2 m/s 638 mmHg 73%
    23:00 +19°C° 0,3 mm 2 m/s 638 mmHg 74%

    24 Juillet, Mardi

    Heure Température Précipitation Vent Pression Humidité
    00:00 +19°C° 0,3 mm 1 m/s 638 mmHg 76%
    01:00 +18°C° 0,2 mm 1 m/s 638 mmHg 78%
    02:00 +18°C° 0,2 mm 1 m/s 638 mmHg 79%
    03:00 +18°C° 0,2 mm 1 m/s 638 mmHg 80%
    04:00 +18°C° 0,1 mm 1 m/s 638 mmHg 79%
    05:00 +19°C° 0,1 mm 1 m/s 638 mmHg 78%
    06:00 +19°C° 0,1 mm 1 m/s 638 mmHg 77%
    07:00 +21°C° 0 mm 1 m/s 639 mmHg 67%
    08:00 +24°C° 0 mm 1 m/s 639 mmHg 57%
    09:00 +26°C° 0 mm 2 m/s 640 mmHg 47%
    10:00 +27°C° 0 mm 2 m/s 640 mmHg 42%
    11:00 +29°C° 0 mm 2 m/s 640 mmHg 38%
    12:00 +30°C° 0 mm 2 m/s 640 mmHg 34%
    13:00 +31°C° 0 mm 2 m/s 640 mmHg 32%
    14:00 +31°C° 0 mm 2 m/s 640 mmHg 31%
    15:00 +32°C° 0 mm 2 m/s 640 mmHg 30%
    16:00 +31°C° 0 mm 2 m/s 640 mmHg 33%
    17:00 +30°C° 0 mm 2 m/s 639 mmHg 37%
    18:00 +29°C° 0 mm 2 m/s 639 mmHg 41%
    19:00 +27°C° 0,1 mm 2 m/s 639 mmHg 48%
    20:00 +25°C° 0,1 mm 2 m/s 639 mmHg 55%
    21:00 +23°C° 0,1 mm 2 m/s 639 mmHg 62%
    22:00 +23°C° 0 mm 2 m/s 639 mmHg 64%
    23:00 +21°C° 0 mm 2 m/s 639 mmHg 67%

    25 Juillet, Mercredi

    Heure Température Précipitation Vent Pression Humidité
    00:00 +21°C° 0 mm 2 m/s 639 mmHg 70%
    01:00 +20°C° 0 mm 2 m/s 639 mmHg 69%
    02:00 +20°C° 0 mm 2 m/s 639 mmHg 69%
    03:00 +20°C° 0 mm 2 m/s 639 mmHg 68%
    04:00 +20°C° 0 mm 2 m/s 640 mmHg 66%
    05:00 +21°C° 0 mm 2 m/s 640 mmHg 64%
    06:00 +22°C° 0 mm 1 m/s 640 mmHg 62%
    07:00 +24°C° 0 mm 2 m/s 641 mmHg 54%
    08:00 +27°C° 0 mm 2 m/s 641 mmHg 45%
    09:00 +29°C° 0 mm 2 m/s 642 mmHg 37%
    10:00 +31°C° 0 mm 2 m/s 642 mmHg 34%
    11:00 +32°C° 0 mm 2 m/s 642 mmHg 31%
    12:00 +34°C° 0 mm 3 m/s 642 mmHg 27%
    13:00 +35°C° 0 mm 3 m/s 641 mmHg 27%
    14:00 +35°C° 0 mm 3 m/s 641 mmHg 27%
    15:00 +35°C° 0 mm 3 m/s 641 mmHg 27%
    16:00 +34°C° 0 mm 3 m/s 641 mmHg 32%
    17:00 +34°C° 0 mm 3 m/s 640 mmHg 37%
    18:00 +32°C° 0 mm 2 m/s 640 mmHg 42%
    19:00 +29°C° 0,2 mm 2 m/s 640 mmHg 51%
    20:00 +27°C° 0,2 mm 3 m/s 640 mmHg 59%
    21:00 +25°C° 0,2 mm 3 m/s 639 mmHg 67%
    22:00 +24°C° 0 mm 3 m/s 639 mmHg 68%
    23:00 +24°C° 0 mm 3 m/s 640 mmHg 69%

    26 Juillet, Jeudi

    Heure Température Précipitation Vent Pression Humidité
    00:00 +22°C° 0 mm 3 m/s 640 mmHg 70%
    01:00 +23°C° 0 mm 2 m/s 640 mmHg 70%
    02:00 +23°C° 0 mm 2 m/s 639 mmHg 70%
    03:00 +23°C° 0 mm 2 m/s 639 mmHg 70%
    04:00 +23°C° 0 mm 2 m/s 640 mmHg 69%
    05:00 +23°C° 0 mm 2 m/s 640 mmHg 68%
    06:00 +23°C° 0 mm 2 m/s 640 mmHg 66%
    07:00 +26°C° 0 mm 2 m/s 641 mmHg 58%
    08:00 +28°C° 0 mm 2 m/s 641 mmHg 50%
    09:00 +30°C° 0 mm 2 m/s 642 mmHg 42%
    10:00 +32°C° 0 mm 2 m/s 642 mmHg 39%
    11:00 +34°C° 0 mm 3 m/s 642 mmHg 36%
    12:00 +36°C° 0 mm 3 m/s 642 mmHg 33%
    13:00 +36°C° 0,3 mm 3 m/s 642 mmHg 33%
    14:00 +36°C° 0,3 mm 3 m/s 642 mmHg 34%
    15:00 +36°C° 0,3 mm 4 m/s 641 mmHg 34%
    16:00 +35°C° 0,7 mm 3 m/s 641 mmHg 39%
    17:00 +34°C° 0,7 mm 3 m/s 641 mmHg 43%
    18:00 +33°C° 0,7 mm 3 m/s 641 mmHg 48%
    19:00 +30°C° 0 mm 3 m/s 641 mmHg 54%
    20:00 +28°C° 0 mm 3 m/s 641 mmHg 60%
    21:00 +26°C° 0 mm 3 m/s 641 mmHg 66%
    22:00 +25°C° 0 mm 3 m/s 641 mmHg 67%
    23:00 +25°C° 0 mm 3 m/s 641 mmHg 68%
    Voir plus